Regional Weather Roundup
Issued by NWS Sioux Falls, SD

Home | Current Version | Previous Version | Text Only | Print | Product List | Glossary Off
Versions: 1 2 3 4 5 6 7 8 9 10 11 12 13 14 15 16 17 18 19 20 21 22 23 24 25 26 27 28 29 30 31 32 33 34 35 36 37 38 39 40 41 42 43 44 45 46 47 48 49 50

000
ASUS43 KFSD 271802
RWRFSD

WEATHER ROUNDUP FOR SE SOUTH DAKOTA/SW MINNESOTA/NW IOWA
NATIONAL WEATHER SERVICE SIOUX FALLS SD
100 PM CDT MON JUL 27 2015

NOTE: "FAIR" INDICATES FEW OR NO CLOUDS BELOW 12,000 FEET WITH NO
SIGNIFICANT WEATHER AND OR OBSTRUCTIONS TO VISIBILITY.


SDZ038>040-050-052>070-271900-
SOUTHEAST SOUTH DAKOTA

CITY           SKY/WX    TMP DP  RH WIND       PRES   REMARKS
BROOKINGS      SUNNY     84  72  65 SE17      29.87F
CHAMBERLAIN    SUNNY     88  68  51 SE13G22   29.79F
6HR MIN TEMP:  71; 6HR MAX TEMP:  88;

HURON          SUNNY     89  70  53 S20       29.79S
6HR MIN TEMP:  70; 6HR MAX TEMP:  90;

MADISON        FAIR      84  72  65 S14G24    29.86S
MITCHELL       SUNNY     87  74  64 S20G29    29.82S HX  95
6HR MIN TEMP:  72; 6HR MAX TEMP:  87;

SIOUX FALLS    MOSUNNY   85  69  58 S16       29.86S
6HR MIN TEMP:  74; 6HR MAX TEMP:  85; 6HR PCP: TRACE;

WINNER         FAIR      90  63  40 SE14G25   29.80F
YANKTON        MOSUNNY   84  70  61 SE15      29.84F
$$

MNZ071-072-080-081-089-090-097-098-271900-
SOUTHWEST MINNESOTA

CITY           SKY/WX    TMP DP  RH WIND       PRES   REMARKS
FAIRMONT       CLOUDY    79  70  73 S15       29.94R
JACKSON        CLOUDY    79  72  78 SE13      29.94S
LUVERNE        SUNNY     86  70  58 S8        29.88S
MARSHALL       CLOUDY    81  72  74 SE14      29.88F
6HR MIN TEMP:  68; 6HR MAX TEMP:  81;

MONTEVIDEO     PTSUNNY   84  75  74 S13G21    29.89S
PIPESTONE      SUNNY     82  72  69 S10       29.89R
REDWOOD FALLS  CLOUDY    79  74  84 SE10      29.89F
TRACY          MOSUNNY   82  75  78 SE12      29.89F
WINDOM         CLOUDY    79  73  83 SE17      29.92S
WORTHINGTON    PTSUNNY   81  68  65 SE13      29.90F
$$

IAZ001>003-012>014-020>022-031-032-NEZ013-014-SDZ071-271900-
NORTHWEST IOWA

CITY           SKY/WX    TMP DP  RH WIND       PRES   REMARKS
DENISON        PTSUNNY   73  68  83 SE8G15    29.92R
ESTHERVILLE    CLOUDY    74  69  85 SE9       29.94R
SIOUX CITY     PTSUNNY   84  72  67 SE17      29.87S
6HR MIN TEMP:  72; 6HR MAX TEMP:  84; 6HR PCP: TRACE;

SPENCER        CLOUDY    76  67  73 E22       29.87F
6HR MIN TEMP:  70; 6HR MAX TEMP:  80; 6HR PCP:  0.40;

$$

ABBREVIATIONS USED IN REMARKS
   TC - TEMPERATURE IN CELSIUS
  WCI - WIND CHILL INDEX
   HX - HEAT INDEX
  VSB - VISIBILITY



USA.gov is the U.S. government's official web portal to all federal, state and local government web resources and services.